#timestamp,LO_Frequency,Hit,StdDev 
1528686015.8,286047000.8,N
1528686035.6,286047001.2,N
1528686055.5,286046999.3,N
1528686075.3,286047000.3,N
1528686095.1,286047000.0,N
1528686115.9,286046998.3,N
1528686135.7,286046999.0,N
1528686155.6,286046999.4,N
1528686175.4,286046998.9,N
1528686195.2,286046999.1,N
1528686215.1,286046998.6,N
1528686216.0,286046998.6,N
1528686235.8,286046999.0,N
1528686255.7,286047000.9,N
1528686275.5,286046998.9,N
1528686295.3,286046999.0,N
1528686315.2,286047000.5,N
1528686335.0,286046999.6,N
1528686335.9,286046999.6,N
1528686355.7,286046998.8,N
1528686375.6,286046998.8,N
1528686395.4,286046999.6,N
1528686415.3,286046998.6,N
1528686435.1,286047001.1,N
1528686455.8,286047000.8,N
1528686475.7,286046998.7,N
1528686495.5,286046998.4,N
1528686515.4,286047000.2,N
1528686535.2,286047000.4,N
1528686555.0,286047000.7,N
1528686555.9,286047000.7,N
1528686575.8,286046996.5,Y
1528686595.6,286046999.1,P
1528686615.5,286046999.3,P
1528686635.3,286046996.5,P
1528686655.1,286046996.5,N
1528686675.9,286046999.1,N
1528686695.7,286046997.3,N
1528686715.5,286046999.5,N
1528686735.4,286046999.1,N
1528686755.2,286046998.5,N
1528686775.1,286046998.8,N
1528686776.0,286046998.8,N
1528686795.8,286047001.2,N
1528686815.6,286046998.7,N
1528686835.5,286047001.0,N
1528686855.3,286046998.9,N
1528686875.2,286046998.4,N
1528686895.9,286046999.3,N
1528686915.7,286046998.3,N
1528686935.6,286046998.4,N
1528686955.4,286047001.1,N
1528686975.2,286046998.7,N
1528686995.1,286046998.8,N
1528686996.0,286046998.8,N
1528687015.8,286046999.4,N
1528687035.7,286046998.2,N
1528687055.5,286047000.1,N
1528687075.3,286047001.9,N
1528687095.2,286047001.8,N
1528687115.0,286047002.6,N
1528687115.9,286047002.6,N
1528687135.8,286046998.5,N
1528687155.6,286046998.3,N
1528687175.4,286046998.1,N
1528687195.3,286047001.2,N
1528687215.1,286047000.6,N
1528687235.9,286046998.2,N
1528687255.7,286046999.7,N
1528687275.5,286047002.0,N
1528687295.4,286046999.8,N
1528687315.2,286047001.6,N
1528687335.0,286047002.8,N
1528687335.9,286047002.8,N
1528687355.8,286047000.4,N
1528687375.6,286047003.8,N
1528687395.4,286047003.3,N
1528687415.3,286047002.9,N
1528687435.1,286047003.4,N
1528687455.9,286047002.1,N
1528687475.7,286047001.7,N
1528687495.5,286047002.6,N
1528687515.4,286047002.3,N
1528687535.2,286046999.7,N
1528687555.0,286046998.1,N
1528687556.0,286046998.1,N
1528687575.8,286047000.8,N
1528687595.6,286047000.6,N
1528687615.5,286046999.8,N
1528687635.3,286047002.4,N
1528687655.1,286046999.9,N
1528687675.9,286047002.7,N
1528687695.7,286047002.3,N
1528687715.6,286047000.3,N
1528687735.4,286047000.0,N
1528687755.2,286047001.2,N
1528687775.1,286047000.0,N
1528687776.0,286047000.0,N
1528687795.8,286046998.2,N
1528687815.6,286047000.3,N
1528687835.5,286047002.2,N
1528687855.3,286047002.2,N
1528687875.2,286047002.0,N
1528687895.9,286047002.0,N
1528687915.7,286047001.6,N
1528687935.6,286047003.5,N
1528687955.4,286047002.1,N
1528687975.3,286047001.5,N
1528687995.1,286047003.0,N
1528687996.0,286047003.0,N
1528688015.8,286047003.8,N
1528688035.7,286047004.1,N
1528688055.5,286047001.5,N
1528688075.3,286047002.0,N
1528688095.2,286047001.7,N
1528688115.0,286047003.6,N
1528688115.9,286047003.6,N
1528688135.8,286047003.8,N
1528688155.6,286047003.9,N
1528688175.4,286047004.1,N
1528688195.3,286047001.7,N
1528688215.1,286047001.3,N
1528688235.9,286047002.1,N
1528688255.7,286047002.7,N
1528688275.5,286047002.0,N
1528688295.4,286047000.0,N
1528688315.2,286047002.5,N
1528688335.1,286047002.5,N
1528688336.0,286047002.5,N
1528688355.8,286047002.8,N
1528688375.6,286047001.1,N
1528688395.5,286047001.0,N
1528688415.3,286047004.0,Y
1528688435.1,286047001.0,P
1528688455.9,286047000.8,N
1528688475.7,286047001.0,N
1528688495.6,286046998.6,N
1528688515.4,286047001.1,N
1528688535.2,286047002.4,N
1528688555.1,286047002.6,N
1528688556.0,286047002.6,N
1528688575.8,286047002.8,N
1528688595.6,286047000.3,N
1528688615.5,286046998.8,N
1528688635.3,286046998.6,N
1528688655.2,286046999.4,N
1528688675.9,286046999.0,N
1528688695.7,286046998.8,N
1528688715.6,286047001.1,N
1528688735.4,286047001.0,N
1528688755.3,286046998.3,N
1528688775.1,286046998.3,N
1528688776.0,286046998.3,N
1528688795.8,286046999.5,N
1528688815.7,286046996.9,N
1528688835.5,286046998.5,N
1528688855.4,286046998.4,N
1528688875.2,286047000.5,N
1528688895.0,286046999.2,N
1528688895.9,286046999.2,N
1528688915.8,286046996.7,N
1528688935.6,286046996.9,N
1528688955.4,286046998.2,N
1528688975.2,286047000.8,N
1528688995.0,286046998.7,N
1528688995.9,286046998.7,N
1528689015.8,286046998.7,N
1528689035.6,286046998.3,N
1528689055.5,286047000.8,N
1528689075.3,286046998.9,N
1528689095.1,286046998.9,N
1528689115.9,286046998.7,N
1528689135.7,286047000.8,N
1528689155.5,286047001.6,N
1528689175.4,286046999.7,N
1528689195.2,286047002.7,N
1528689215.1,286047000.6,N
1528689216.0,286047000.6,N
1528689235.8,286047002.3,N
1528689255.6,286047000.1,N
1528689275.5,286047000.5,N
1528689295.3,286047001.2,N
1528689315.2,286046998.2,N
1528689335.9,286047000.8,N
1528689355.7,286047000.5,N
1528689375.6,286047002.7,N
1528689395.4,286046999.9,N
1528689415.3,286047002.3,N
1528689435.1,286047002.6,N
1528689436.0,286047002.6,N
1528689455.8,286047000.5,N
1528689475.7,286047000.6,N
1528689495.5,286047000.7,N
1528689515.3,286046998.2,N
1528689535.5,286046998.3,N
1528689555.4,286047001.1,N
1528689575.2,286047002.0,N
1528689595.1,286047001.3,N
1528689596.0,286047001.3,N
